Theta_e
340 339 337 336 336 335 334 332 328 329 328 323 324 328 331 333 333 332 331 330 328 326 321 317 317 320 321 322 321 321 320 320 319 319 318 317 315 312 314 319 322 323 324 325 325 325 325 325 325 325 325 325 326 326 327 328 328 329 329 329 329 329 329 329 329 329 329 328 328 327 326 325 324 323 322 324 324 325 326 326 326 326 326 326 326
339 339 338 336 335 334 334 334 331 330 326 321 324 328 330 332 333 332 332 330 329 327 321 316 315 316 319 321 321 320 320 320 319 318 317 315 313 309 309 314 319 322 323 324 323 323 323 322 321 320 320 320 321 322 324 326 326 327 328 328 329 328 328 329 328 329 329 328 327 326 326 326 325 323 321 323 325 326 327 327 327 327 326 326 326
338 338 338 336 333 332 334 335 334 333 327 322 326 331 331 332 333 333 332 331 330 328 322 317 315 316 319 320 320 319 319 319 320 319 316 315 313 308 307 310 314 317 320 321 322 321 319 317 316 315 315 316 317 319 321 323 324 326 327 327 328 328 328 328 328 328 329 329 327 326 326 326 326 324 322 323 324 325 325 326 326 326 325 324 323
338 339 338 336 332 330 332 333 333 333 328 323 326 331 331 331 332 333 333 332 331 328 323 318 314 314 317 317 317 318 319 320 320 319 316 314 311 308 307 309 312 314 316 319 320 318 317 316 316 317 317 318 318 319 321 322 323 324 325 326 327 327 327 328 328 328 329 328 327 327 327 327 327 326 325 324 324 323 323 323 324 325 325 324 324
338 340 339 336 332 330 331 331 332 332 329 325 324 328 330 330 331 333 333 333 331 327 319 315 314 313 315 315 315 316 318 318 318 318 314 310 308 307 308 309 312 314 316 318 319 319 318 318 317 317 317 318 319 320 322 323 323 323 324 324 324 325 326 327 327 327 327 327 327 327 327 327 327 326 325 325 324 323 322 322 322 324 325 325 325
338 341 339 336 334 332 332 331 331 331 329 327 326 327 327 327 331 333 333 333 331 324 315 313 313 312 313 313 313 314 315 315 316 317 314 309 307 307 309 311 314 316 317 318 319 319 319 318 317 316 315 317 319 320 321 321 321 322 322 322 323 324 325 326 326 326 326 327 327 327 327 326 326 325 325 325 326 324 324 323 322 323 325 325 325
339 341 339 336 335 335 334 333 332 331 329 326 326 327 326 327 332 334 333 332 328 319 313 313 312 312 313 313 313 313 312 311 313 315 312 309 307 308 309 311 314 317 318 318 318 318 318 318 317 315 314 315 317 318 319 319 320 319 318 319 321 323 325 326 326 326 326 326 327 327 327 326 326 326 325 325 325 325 324 324 323 323 324 325 325
339 340 339 336 335 335 335 333 332 331 330 328 328 329 329 331 333 333 333 331 324 314 312 313 311 312 313 314 314 314 312 311 309 310 309 308 308 308 308 309 311 314 316 316 315 315 317 316 313 310 310 311 312 314 315 315 315 314 314 316 319 322 324 324 325 325 326 326 326 326 326 327 326 326 325 325 325 324 324 324 324 324 324 325 326
337 338 338 337 335 335 335 333 333 332 331 330 330 331 331 330 331 330 333 331 321 312 313 313 311 314 315 314 315 315 314 312 309 307 307 307 307 308 308 308 309 310 310 310 311 313 315 313 309 306 306 306 307 307 308 308 308 310 313 315 317 320 322 323 323 323 324 325 326 326 325 325 325 324 325 326 325 324 324 325 325 326 325 325 325
336 336 337 337 336 335 334 333 332 332 331 331 330 330 330 329 328 329 331 330 321 312 313 312 312 315 316 315 316 316 315 311 308 307 307 307 306 307 307 307 307 307 306 307 309 312 312 309 306 305 306 305 305 305 305 306 306 308 311 311 313 317 321 322 321 321 322 323 323 323 324 323 323 323 324 325 324 323 323 324 324 324 324 324 324
334 334 335 335 335 335 333 331 331 331 331 331 330 329 329 328 326 328 329 326 321 315 313 312 314 316 316 316 318 318 314 309 307 307 307 306 306 306 306 306 306 306 306 306 308 309 308 307 306 306 306 306 306 306 306 306 306 306 307 308 309 312 314 314 313 312 315 319 320 320 320 319 320 322 323 324 323 323 321 322 322 320 320 322 322
334 334 334 334 333 332 331 331 331 330 330 330 329 328 327 326 325 326 326 322 318 315 313 313 315 316 316 319 320 319 316 310 307 308 307 306 306 306 306 305 306 306 306 306 306 307 306 306 306 306 306 306 306 307 306 306 306 306 306 307 307 307 307 307 306 305 308 313 314 315 315 315 317 320 322 322 321 321 320 319 318 318 319 319 318
332 334 334 333 332 331 331 332 331 331 331 330 329 325 322 323 320 319 320 317 314 314 313 315 317 316 317 321 321 320 318 311 307 308 308 307 307 306 306 305 305 306 306 306 306 306 306 306 306 306 306 306 306 306 307 306 306 306 306 306 306 306 306 305 305 306 306 308 308 310 310 312 314 316 317 317 316 316 316 317 316 316 317 317 315
330 331 332 331 331 331 331 332 331 332 333 331 331 328 325 324 319 314 315 315 313 313 313 315 317 316 318 321 322 321 320 314 308 308 308 307 307 306 306 306 305 306 306 306 306 306 306 306 306 306 306 306 306 306 306 306 306 306 306 306 306 306 305 305 305 305 305 305 305 306 306 307 308 309 309 309 307 308 309 312 315 315 315 315 314
328 328 329 329 329 331 331 331 330 330 332 332 331 329 327 325 320 315 315 316 316 316 314 314 316 316 317 320 322 321 321 317 310 308 308 307 307 306 306 306 306 306 306 306 306 306 306 306 306 307 306 306 306 306 306 305 305 305 305 305 305 305 305 305 304 304 304 304 303 303 303 303 304 304 304 303 304 304 304 307 311 314 314 313 313
326 326 327 327 327 328 330 331 331 331 331 332 331 328 327 326 323 320 318 318 318 317 314 313 314 315 317 320 322 321 322 319 311 308 309 308 307 307 307 307 306 307 306 306 306 306 306 306 306 306 306 306 306 305 305 305 305 305 305 304 305 304 304 304 304 304 303 303 303 303 303 302 302 303 302 302 303 303 303 304 307 311 314 313 312
325 326 326 326 325 326 328 330 331 332 333 333 332 328 328 327 324 323 322 320 318 315 313 314 314 315 317 319 320 319 319 316 310 308 309 309 308 307 307 307 307 307 307 307 307 307 307 307 306 306 306 306 306 306 306 305 305 305 305 304 304 304 304 304 303 303 303 303 303 302 303 303 302 302 302 302 302 302 303 303 304 307 311 313 312
322 322 322 324 324 324 325 328 329 330 330 332 331 329 328 327 324 323 323 322 320 316 314 315 314 314 318 320 319 316 314 313 309 308 309 309 309 308 307 307 307 307 307 307 307 307 307 307 307 307 307 307 306 306 306 306 305 305 305 305 305 305 305 305 304 304 304 303 303 303 303 303 303 304 303 303 303 303 302 302 302 303 306 310 312
318 320 321 323 323 321 323 326 328 327 327 329 330 330 330 329 328 327 326 325 323 318 314 314 315 316 319 323 322 317 312 311 311 310 311 310 309 309 309 308 308 307 308 308 308 309 309 309 309 310 309 309 308 308 307 307 306 306 306 306 306 306 306 306 306 306 306 305 305 305 304 304 304 305 305 304 304 304 303 303 303 303 304 307 310
323 323 322 321 322 319 319 323 327 327 328 328 329 330 330 330 330 330 329 328 326 322 319 318 319 319 321 324 324 319 312 312 314 316 317 313 310 310 310 310 310 309 311 312 312 312 312 312 313 313 314 313 312 311 310 309 308 307 307 306 306 306 306 306 306 307 307 307 307 306 306 306 306 306 306 306 306 305 305 305 305 305 305 306 307
325 324 321 321 323 323 322 324 325 327 328 328 328 328 329 329 329 330 329 328 327 326 324 323 322 321 322 325 326 321 314 313 316 319 320 318 313 312 312 312 312 313 315 316 316 317 316 316 317 317 317 317 316 315 314 313 312 311 310 308 307 307 307 307 307 307 307 307 307 307 306 306 306 306 306 306 306 306 306 307 307 307 306 306 306
324 324 323 324 325 324 324 325 325 326 328 327 327 327 328 328 328 328 328 328 328 327 326 326 324 322 323 325 326 323 316 313 317 320 321 320 317 316 316 314 313 315 317 318 318 319 318 318 318 318 318 318 318 317 316 316 315 315 315 314 312 311 310 309 309 308 308 308 307 307 306 306 306 306 306 306 306 306 306 306 306 306 307 306 306
324 325 325 324 325 323 323 323 323 325 326 326 326 326 326 326 326 326 327 327 327 327 327 327 326 324 324 325 325 323 317 314 317 320 321 320 319 318 318 316 315 317 318 318 319 319 319 318 317 318 318 319 318 318 317 317 317 317 317 317 316 315 315 314 314 312 311 310 309 309 308 308 307 307 306 306 306 306 306 306 306 306 306 306 306
324 325 324 324 324 323 323 323 323 324 324 324 325 324 325 325 325 326 326 325 326 326 326 327 326 325 325 325 325 323 319 316 318 320 321 321 319 318 317 316 316 318 319 319 319 318 318 318 318 318 318 318 319 318 318 317 317 318 318 318 318 318 318 318 317 316 315 314 312 312 311 310 310 309 309 308 308 306 306 306 306 307 307 308 308
323 323 323 322 323 323 323 323 323 324 324 324 324 324 324 325 324 325 325 325 325 325 325 325 325 326 325 325 324 322 319 317 319 321 321 321 320 318 316 314 315 318 319 318 318 318 317 317 318 319 319 319 319 318 318 317 317 317 318 318 319 319 319 319 319 319 318 317 316 314 313 313 313 313 313 312 311 309 308 308 308 309 310 311 312
322 321 321 321 322 322 322 322 322 323 324 324 324 324 324 323 323 324 324 324 324 324 324 325 325 325 325 325 324 322 319 317 318 321 321 321 320 319 317 315 314 315 316 316 317 317 316 317 318 318 318 318 318 318 317 317 317 317 317 317 318 318 318 319 319 319 318 318 318 317 316 315 315 315 315 315 314 312 311 312 312 312 312 313 313
321 320 320 320 321 321 320 320 321 322 322 323 323 323 323 322 323 323 323 323 323 323 324 324 325 325 325 324 323 321 319 318 319 321 321 320 320 320 319 317 315 314 315 317 317 316 316 317 318 318 318 317 317 317 317 317 317 317 316 317 318 319 318 318 319 318 317 317 317 317 317 317 316 316 316 316 316 315 315 315 315 314 314 313 313
321 320 320 320 319 318 317 317 317 316 316 316 318 320 321 322 322 322 322 322 322 323 323 324 324 324 323 323 322 322 321 321 321 320 320 320 320 320 320 319 318 317 317 318 317 317 317 317 317 318 318 317 317 316 317 317 318 319 318 319 319 319 319 319 319 318 316 315 316 317 317 317 317 317 316 316 316 316 315 314 314 315 314 313 313
321 321 321 320 319 318 316 315 315 312 310 311 314 319 321 322 322 321 321 320 320 321 322 323 323 323 323 323 322 321 320 320 321 319 319 320 320 319 319 318 317 317 316 316 317 317 318 317 317 318 318 317 317 317 318 319 319 319 319 319 319 319 319 320 320 319 317 316 317 317 318 318 318 317 317 316 316 315 315 314 314 314 313 313 313
319 320 320 320 320 319 318 318 317 316 314 314 317 320 321 321 322 321 321 321 320 320 321 322 322 322 322 322 321 320 319 320 321 320 320 319 319 318 317 317 317 317 317 317 317 318 318 318 318 318 318 317 317 317 317 318 318 318 319 320 320 320 320 320 319 319 319 318 318 319 319 319 318 318 317 317 316 315 315 315 314 313 312 312 311
316 317 317 318 319 319 318 318 318 318 318 318 318 319 319 319 320 320 320 321 320 320 320 320 320 320 321 321 321 320 320 320 319 319 318 318 318 317 317 316 317 317 317 316 316 316 317 317 317 317 316 316 316 315 315 314 315 316 317 318 319 319 319 320 320 320 319 319 319 319 319 319 319 318 318 317 316 316 315 315 314 314 313 311 311
314 314 315 315 315 316 316 316 316 316 316 316 316 316 316 316 316 316 317 317 318 317 317 315 314 315 316 317 316 316 316 315 315 315 315 315 314 314 314 314 314 313 313 313 313 314 315 316 316 315 315 315 315 314 314 313 313 314 314 315 315 316 316 317 317 318 318 318 318 318 318 318 318 319 318 318 317 316 315 314 314 313 313 312 311
310 311 312 311 311 312 312 312 312 311 311 312 312 312 313 313 312 312 312 312 313 313 313 311 309 309 310 310 310 310 310 310 310 311 311 311 311 310 311 311 311 311 311 311 311 312 312 313 313 313 313 314 313 313 313 313 313 313 313 314 314 314 314 314 313 313 313 313 313 313 314 315 316 317 318 318 318 317 316 315 314 313 313 312 311
307 307 307 308 308 309 309 309 309 309 309 309 309 309 310 309 309 309 309 309 309 309 310 309 308 308 308 308 307 308 308 308 308 308 309 309 309 309 309 309 309 310 309 309 309 309 309 309 309 309 309 309 309 309 310 310 311 311 312 313 314 314 314 314 313 312 311 311 311 311 311 312 313 315 316 317 317 317 316 314 313 313 313 311 310
306 306 305 306 306 307 307 307 307 308 307 307 307 307 307 307 307 307 307 307 306 306 307 308 308 308 307 307 307 307 307 308 308 308 308 308 308 308 308 308 308 307 306 306 306 305 305 305 304 304 304 304 303 304 304 304 305 306 307 309 311 312 312 312 312 311 312 311 311 310 310 310 311 313 315 316 316 316 315 314 313 313 312 311 310
305 306 306 306 306 306 306 307 307 307 307 307 307 307 306 306 306 306 306 306 306 306 306 307 307 307 307 307 307 307 307 307 308 308 308 308 308 308 307 306 305 304 303 303 304 304 304 303 303 302 302 302 301 301 302 302 302 302 303 304 306 308 309 309 310 311 312 312 312 311 310 311 312 313 314 315 315 314 313 313 313 312 311 311 310
302 304 305 306 306 306 305 306 307 307 307 307 307 307 306 306 306 306 306 306 306 306 306 306 307 307 307 307 307 306 306 307 308 308 308 308 308 308 307 306 306 305 305 305 305 305 304 304 304 303 303 302 302 301 301 302 303 302 302 303 304 305 307 309 310 311 312 312 312 312 311 311 312 313 313 313 313 313 312 311 311 311 310 309 308
300 301 302 303 304 304 303 303 304 306 307 306 306 306 306 307 307 306 306 306 306 306 306 306 306 306 306 307 306 306 306 307 307 308 308 308 308 307 307 307 306 307 306 306 306 305 305 304 304 303 303 303 302 301 301 302 302 302 302 303 303 304 307 308 310 310 311 312 312 312 311 311 311 312 313 312 311 311 310 310 310 309 309 308 307
300 300 300 300 301 301 301 301 302 303 305 305 305 306 305 306 306 306 306 306 306 306 306 306 306 306 306 306 306 306 306 306 307 307 307 307 307 307 307 306 306 306 305 305 305 305 305 305 304 304 303 303 303 302 302 302 302 302 302 302 302 303 304 307 308 310 311 311 311 311 310 310 310 310 310 310 310 309 309 309 308 308 308 307 307
300 300 300 300 300 300 300 300 301 301 302 302 303 304 305 305 306 305 306 305 306 306 306 306 306 306 306 306 306 306 306 306 306 306 306 306 306 306 306 305 305 304 304 304 305 305 305 305 305 304 304 304 304 304 303 303 303 303 303 302 302 301 302 305 307 309 310 310 310 309 309 309 309 308 308 309 309 309 308 308 307 307 306 306 305
300 300 300 300 300 301 301 300 300 301 302 301 302 302 303 304 304 304 305 305 305 305 305 306 306 306 306 305 305 305 306 306 306 306 305 305 305 305 304 304 303 303 303 303 304 304 305 304 304 303 304 304 304 304 304 303 303 304 305 304 303 302 302 305 307 308 309 308 308 308 308 307 307 307 307 308 307 307 307 306 306 306 306 305 304
298 298 298 299 300 300 300 300 300 300 300 300 300 300 301 302 302 302 303 303 302 303 304 304 305 306 306 305 305 305 305 305 305 305 305 305 304 304 303 303 303 303 303 302 302 302 302 302 302 303 303 304 305 304 303 302 303 305 306 306 305 303 302 304 306 308 308 307 307 307 307 307 307 307 306 306 306 306 306 306 305 305 304 304 303
297 297 297 298 298 298 299 299 299 299 299 299 299 300 300 300 301 301 301 301 301 302 302 303 304 305 305 304 304 304 304 303 304 304 304 304 304 303 303 303 303 303 303 302 301 300 300 300 300 302 304 305 305 304 303 303 302 304 306 306 306 304 303 303 305 307 307 307 306 306 306 306 306 306 305 306 305 305 305 304 304 303 303 302 301
297 297 297 297 297 297 297 298 298 298 298 298 298 299 299 299 300 300 301 301 301 301 301 302 303 303 304 304 304 304 303 303 303 303 303 303 303 303 303 303 303 302 302 302 301 300 300 300 301 302 304 305 305 305 305 303 302 303 306 306 306 305 304 304 305 306 307 306 306 305 305 304 304 304 304 304 304 304 304 303 302 302 301 300 298
296 297 296 296 297 297 297 297 297 297 298 298 298 298 298 299 299 299 300 300 300 301 301 301 302 302 302 303 303 303 303 303 303 303 303 303 303 303 303 303 302 302 302 302 301 301 301 301 302 303 303 304 304 305 304 303 302 303 306 306 306 306 305 305 305 306 305 305 304 304 303 303 302 302 303 303 303 303 302 301 299 298 297 295 294
296 296 296 296 296 296 296 296 296 297 297 297 297 298 298 298 298 299 300 301 300 301 301 301 301 301 301 302 302 303 303 303 303 303 303 303 303 303 303 302 302 302 302 302 302 302 302 301 301 301 302 302 302 302 302 301 301 304 306 306 306 306 306 306 305 305 304 304 303 302 302 301 301 301 301 301 300 298 297 296 294 294 293 293 293
296 296 296 296 296 296 296 296 296 296 296 297 297 298 297 297 298 298 300 301 301 301 302 302 302 302 302 303 303 303 303 303 304 304 303 303 303 302 302 302 302 302 302 301 301 301 301 301 301 301 301 301 300 300 299 300 303 305 306 306 306 306 306 306 305 304 303 303 302 302 301 301 300 299 298 296 295 294 293 293 293 292 293 293 293
296 296 296 296 296 296 296 296 295 296 296 296 296 297 297 297 297 297 298 299 300 300 301 301 301 302 302 302 303 303 303 303 303 302 302 302 302 301 301 301 301 301 301 301 301 301 300 300 300 301 301 301 300 299 299 301 304 306 306 306 306 306 305 305 304 303 302 302 302 301 299 298 296 295 293 293 292 292 292 292 293 293 293 293 293
295 295 295 295 295 295 295 295 295 295 295 295 296 296 296 297 297 297 297 298 298 299 300 300 300 300 300 301 301 301 301 301 301 301 301 300 300 300 300 300 300 300 300 300 300 300 300 300 300 301 302 301 301 300 299 301 303 305 305 305 305 305 305 304 303 302 301 300 299 297 295 293 293 292 292 292 292 293 293 293 293 293 293 293 293
292 293 293 293 293 293 293 293 294 294 294 295 295 296 296 297 297 297 297 297 297 298 298 299 299 299 299 299 300 300 300 300 300 300 300 300 300 300 300 300 300 300 300 300 300 300 300 300 301 302 302 302 301 301 300 301 303 305 304 304 304 304 304 302 302 301 300 297 295 293 292 292 292 292 292 292 293 293 293 293 293 293 293 292 292
291 291 291 291 291 291 291 291 292 292 292 293 294 295 296 296 297 297 297 297 297 297 297 298 298 298 299 299 299 300 299 299 299 299 299 299 300 300 299 299 299 300 300 300 300 300 300 300 300 300 301 301 301 300 300 303 304 304 303 303 303 303 302 301 301 299 297 294 293 292 292 292 292 292 292 293 293 293 293 293 293 293 292 292 292
Wind_Speed
26 25 25 25 27 28 28 29 27 25 23 22 23 21 18 18 17 16 15 14 13 10 7 6 5 4 3 3 3 2 1 1 1 1 1 1 2 3 2 2 1 0 1 2 3 3 4 5 5 6 6 7 8 8 9 12 13 13 13 13 13 12 11 10 10 10 11 12 12 11 11 11 11 12 12 11 10 10 11 11 12 13 13 13 13
26 26 26 26 28 28 29 30 28 27 25 24 25 21 18 19 19 17 16 15 12 9 6 5 3 3 3 4 4 3 1 1 1 1 1 1 3 4 3 2 2 2 2 2 3 3 4 4 5 5 6 6 6 6 6 8 10 11 13 13 13 12 10 10 9 10 12 12 12 11 11 11 10 11 11 11 11 11 11 11 12 13 12 11 12
27 27 26 28 28 28 30 31 30 30 29 28 27 23 20 21 21 19 17 15 12 9 7 5 3 3 3 4 4 3 2 2 2 2 1 2 4 4 4 2 1 3 3 3 3 2 2 2 3 3 2 3 3 4 4 4 6 8 10 11 11 10 8 8 8 10 12 12 11 11 12 11 10 10 11 12 12 12 11 11 13 13 12 11 11
28 28 28 30 30 29 30 32 32 32 31 31 30 26 23 24 23 21 20 16 12 10 8 6 5 4 5 5 4 3 3 3 4 2 1 2 3 3 2 2 1 2 2 2 1 0 1 1 2 1 1 1 1 1 1 1 2 3 5 7 8 8 7 7 7 8 9 10 9 9 10 10 9 9 10 12 12 13 13 14 15 14 13 12 12
28 29 31 32 33 33 31 33 34 33 32 32 32 28 25 25 25 23 21 17 12 11 9 8 7 6 7 6 5 5 5 5 4 2 1 2 2 2 1 1 2 3 2 2 1 1 1 1 2 2 2 1 1 1 2 2 2 2 3 3 4 6 7 6 6 6 8 9 9 8 7 7 8 7 6 7 8 10 11 13 15 14 12 12 12
26 28 31 33 34 34 32 34 35 34 33 32 31 28 25 25 26 25 22 16 12 11 11 10 9 8 8 6 4 4 4 4 4 2 2 2 1 1 1 0 2 2 2 1 0 1 1 1 3 3 2 1 1 1 2 2 2 2 2 3 3 3 3 5 6 7 8 9 10 10 7 5 6 6 4 4 5 6 7 9 11 12 10 10 11
26 28 31 33 34 34 35 35 35 34 32 31 29 26 24 26 28 27 21 15 11 11 12 12 11 9 8 5 1 1 2 3 3 3 2 2 2 2 1 1 1 1 1 0 1 1 1 2 4 3 2 1 1 1 0 1 2 3 3 3 4 5 4 1 3 6 8 9 10 10 9 5 5 5 5 4 4 4 5 6 8 9 9 9 9
28 30 32 34 35 35 35 36 35 34 30 27 25 24 25 27 29 25 18 12 11 13 14 14 12 10 8 5 2 1 1 2 2 2 2 2 3 2 1 0 0 1 1 2 2 1 2 3 4 4 3 2 1 0 1 2 4 4 3 2 2 4 5 5 3 0 4 6 8 9 8 7 7 7 6 5 4 4 5 5 7 8 9 10 9
29 30 32 34 35 35 35 35 33 28 24 22 22 23 25 23 22 20 15 12 14 15 15 14 12 10 7 5 4 3 3 3 3 3 3 2 2 2 0 1 1 2 3 3 2 1 3 4 4 5 5 5 4 3 2 1 0 0 1 1 1 2 3 5 5 4 3 1 2 3 3 4 6 5 4 5 5 5 4 5 5 5 7 9 9
30 30 31 32 33 34 33 28 24 21 19 19 20 22 23 18 16 18 17 15 17 17 16 14 12 10 8 6 6 5 5 4 4 4 3 2 1 1 1 1 1 2 3 3 3 3 4 4 5 6 7 8 8 9 8 7 6 5 4 3 3 3 2 2 3 3 4 5 4 4 3 3 4 5 3 3 3 5 6 6 6 4 5 5 5
30 30 30 30 31 30 24 18 15 15 15 17 17 18 18 16 16 19 18 18 19 18 17 16 13 12 10 8 7 5 4 4 5 4 2 2 2 1 1 1 2 3 3 4 5 4 4 4 4 5 6 8 9 9 10 10 10 9 8 7 6 4 3 2 1 1 2 3 4 4 4 4 5 5 4 4 4 4 6 9 9 7 6 6 5
29 29 29 29 29 23 16 14 14 14 16 17 16 14 13 14 15 18 19 20 20 19 18 17 15 14 11 9 7 5 4 4 5 4 2 1 2 2 2 3 3 3 4 5 5 5 4 4 4 5 6 7 7 7 8 8 9 9 9 8 7 6 6 6 6 6 5 4 3 3 2 2 4 5 5 5 6 6 6 8 10 8 8 9 9
26 27 28 29 26 19 17 18 19 20 21 19 16 15 16 17 16 18 21 22 21 20 19 17 15 14 12 9 8 7 4 3 5 4 2 2 2 3 4 4 5 5 5 5 5 4 4 4 4 5 5 6 6 6 6 6 7 7 8 8 8 8 8 8 8 8 8 6 5 4 4 3 4 4 4 3 4 5 5 7 8 7 8 11 10
18 20 21 21 18 17 19 23 24 24 23 20 16 17 20 19 19 22 23 24 23 21 19 18 16 14 12 10 9 8 6 4 6 6 3 3 3 4 4 5 6 6 6 6 5 4 3 3 3 4 4 4 4 5 5 5 5 5 6 6 6 7 8 8 8 8 7 7 7 6 5 5 4 4 3 3 3 5 6 7 8 9 10 11 11
11 11 8 6 8 14 19 22 23 23 23 22 18 19 22 18 16 20 22 23 25 23 19 18 17 16 14 12 10 10 7 5 6 7 5 4 4 5 5 5 6 6 6 6 5 4 3 3 2 2 2 3 3 4 4 4 5 5 5 5 5 6 6 7 7 7 7 7 7 7 7 6 6 5 5 4 4 5 7 8 9 11 11 11 11
10 10 9 8 5 6 14 18 20 21 22 22 19 19 20 13 10 15 19 22 24 23 21 20 20 18 15 13 12 11 9 6 7 10 8 6 6 6 6 6 5 6 5 5 5 4 4 3 3 2 2 2 3 3 3 4 5 6 6 6 6 6 6 6 6 7 7 7 7 7 7 7 7 7 7 6 5 4 4 6 8 10 11 11 11
9 7 9 8 10 7 4 9 15 17 19 20 17 15 13 9 9 12 15 20 24 25 23 22 22 19 16 14 13 12 9 7 9 12 11 9 8 7 8 7 6 5 4 4 4 4 4 3 3 2 2 2 2 2 3 3 4 5 6 7 7 7 7 7 7 7 7 8 7 7 7 8 8 8 8 8 7 6 5 4 4 6 9 10 11
4 3 0 1 3 7 7 5 7 10 12 14 12 12 11 8 8 11 12 16 22 25 24 23 23 21 18 17 15 12 9 8 11 13 13 11 9 8 9 8 7 6 5 4 3 3 3 2 2 2 1 1 1 1 2 2 3 4 5 6 7 7 7 7 8 8 7 7 8 7 7 7 8 9 9 9 8 8 7 6 5 4 5 8 10
6 8 6 5 3 3 5 4 2 2 6 8 7 9 9 6 7 11 11 11 18 24 24 24 24 22 20 18 16 13 11 12 14 13 13 12 11 10 9 9 8 7 5 4 3 2 2 1 0 0 0 1 1 1 2 2 2 2 2 3 4 5 5 6 6 7 7 7 7 7 6 6 7 7 8 8 8 8 8 8 8 7 6 7 9
12 15 13 9 6 3 2 4 3 2 3 4 4 6 6 5 8 10 10 11 15 22 25 24 22 22 22 20 18 16 14 15 15 14 11 11 10 10 9 9 8 7 6 4 3 2 1 1 1 2 2 2 3 3 3 3 2 2 2 1 2 2 2 3 4 4 4 5 5 5 5 5 5 5 6 7 7 7 7 8 8 8 8 9 8
14 14 12 9 7 5 4 3 3 1 2 3 4 5 5 7 9 10 10 10 12 18 24 24 21 21 22 22 20 18 16 16 17 15 11 9 9 9 9 9 10 9 7 5 4 3 3 3 4 4 5 5 5 5 5 5 4 4 4 3 3 2 2 1 1 1 2 2 2 3 3 3 3 4 4 4 5 5 5 5 5 5 6 7 7
14 12 11 10 8 7 6 5 4 5 5 4 5 6 6 7 9 10 10 10 12 16 23 25 22 20 21 23 22 19 18 18 18 16 13 10 10 9 9 11 12 12 10 9 8 8 7 7 7 6 6 6 7 7 7 7 6 5 5 4 4 3 3 3 3 2 2 1 1 0 0 1 1 1 1 2 3 3 2 2 2 2 2 2 3
15 14 12 10 8 7 7 6 6 6 6 5 4 5 6 6 8 9 9 11 13 16 20 24 23 21 22 24 23 20 20 20 18 16 14 13 13 12 11 12 13 13 13 13 13 11 10 10 9 8 8 7 8 9 9 7 6 6 6 6 5 4 3 3 3 4 4 4 3 2 2 2 2 2 1 2 2 2 2 2 2 2 3 3 3
15 13 11 9 9 8 7 7 7 7 6 5 5 5 5 6 7 8 9 11 13 16 18 21 22 22 23 24 23 21 22 21 19 17 17 17 16 15 13 13 14 14 15 16 16 14 13 14 13 13 13 12 11 11 11 10 9 9 9 8 8 8 7 6 5 5 5 5 5 5 4 4 4 3 3 3 3 3 4 4 4 5 5 5 5
12 11 10 10 9 8 8 8 8 8 7 6 6 6 6 6 6 7 9 10 12 15 17 18 19 20 22 23 22 21 22 21 19 18 19 19 18 17 16 16 17 16 16 16 16 15 15 16 16 16 16 16 15 15 16 16 14 12 10 9 10 12 12 11 10 9 8 8 7 6 6 6 5 5 5 4 4 4 5 6 7 7 6 7 9
11 10 11 11 10 9 9 8 8 8 7 6 5 5 5 5 5 7 8 9 11 13 14 15 15 16 19 20 19 19 20 20 18 18 19 20 19 17 16 17 19 20 19 19 19 18 17 18 18 18 17 18 19 19 19 19 18 16 14 12 10 11 13 14 14 14 13 12 11 10 9 8 7 6 6 6 6 6 7 8 10 10 10 10 12
11 11 11 10 10 10 10 9 9 8 6 5 4 4 4 3 4 6 8 9 9 9 10 13 14 14 16 16 14 14 15 16 18 19 19 19 19 18 16 16 18 20 20 20 21 21 21 21 21 19 19 21 22 21 20 18 17 17 16 14 12 12 13 14 14 15 14 12 11 11 11 11 10 8 7 8 8 8 8 9 10 11 12 12 13
12 10 10 9 10 10 10 10 10 8 7 5 4 5 5 4 5 6 8 9 8 7 8 11 13 14 14 14 13 12 12 14 16 16 17 18 18 17 17 17 17 19 20 20 20 21 22 22 21 20 20 21 23 22 19 17 16 16 16 15 14 14 15 15 15 15 14 13 12 14 14 14 14 13 11 11 11 11 10 10 9 10 12 13 13
12 11 11 10 10 10 10 11 10 10 9 7 7 7 6 6 7 7 8 8 8 7 7 8 10 13 14 14 14 13 13 14 13 12 13 16 16 16 19 20 20 21 22 21 20 19 20 21 20 19 19 20 21 20 17 15 15 16 16 16 15 16 16 16 15 16 16 17 17 17 16 16 16 16 15 15 14 14 13 13 12 12 13 13 14
11 12 13 13 13 12 11 11 10 10 9 9 8 8 7 6 7 7 8 8 7 8 8 7 8 10 12 13 13 13 14 14 14 13 13 14 15 15 16 16 14 12 13 13 13 13 13 13 13 13 14 14 13 11 11 11 13 14 15 15 16 17 17 17 17 18 18 18 18 17 16 16 16 17 18 19 18 17 17 16 16 16 17 16 14
8 10 12 14 15 14 13 12 11 10 9 8 8 7 6 6 6 6 6 6 7 7 8 7 7 7 9 10 11 11 12 13 12 11 10 10 10 10 8 6 5 4 4 4 5 5 4 4 5 6 6 6 5 5 6 7 8 9 11 12 14 15 15 16 17 17 17 17 17 16 16 16 16 17 19 20 20 20 20 19 19 20 20 19 18
5 7 9 11 13 15 15 14 13 11 10 8 7 7 6 5 5 5 5 6 6 6 7 8 7 7 7 7 8 8 9 9 9 8 8 8 8 7 6 5 4 3 3 3 2 3 3 3 4 5 5 6 6 7 7 8 8 9 9 10 10 10 10 11 12 13 13 14 14 14 14 15 15 16 18 19 20 21 21 22 23 23 23 22 22
6 5 6 8 10 12 13 13 13 13 12 11 9 8 7 6 6 5 5 6 6 6 7 7 8 8 8 8 8 8 8 8 8 8 8 8 7 6 5 4 4 3 2 2 2 2 3 5 6 6 7 8 8 9 10 10 10 10 11 10 10 9 9 9 9 10 11 12 12 13 13 13 14 15 17 18 19 19 21 24 26 25 24 23 23
12 10 9 8 8 9 10 10 11 11 11 12 11 10 8 7 6 5 5 5 5 5 5 5 6 6 7 7 7 7 7 6 6 6 6 5 5 4 4 3 3 3 3 4 4 5 5 6 7 7 8 9 11 11 12 13 13 13 13 13 12 11 11 10 10 10 11 11 12 13 13 13 14 15 15 17 17 17 19 23 25 25 24 24 23
13 11 11 11 10 9 9 9 10 9 9 10 10 10 9 8 6 5 4 4 5 6 6 6 6 6 6 6 7 7 7 7 7 7 6 6 5 5 5 5 6 5 5 5 5 5 5 5 6 6 8 9 10 11 12 13 13 14 14 14 14 14 14 14 13 12 12 12 12 12 13 13 14 14 14 15 15 15 18 21 24 25 24 24 23
11 9 7 6 7 7 6 5 5 5 5 5 5 5 6 7 7 6 5 4 4 6 7 7 6 6 6 6 6 6 7 8 8 8 8 7 7 7 7 7 7 7 6 6 5 5 4 4 5 6 7 9 10 11 12 12 13 13 14 14 15 15 16 16 15 14 13 13 12 13 13 13 13 13 13 13 13 13 17 20 22 23 24 24 24
14 11 8 6 4 5 6 2 2 4 4 3 3 5 6 7 8 7 6 5 5 5 6 6 5 5 4 4 4 5 6 8 9 9 9 9 8 8 7 7 7 7 6 5 5 5 6 7 8 8 9 10 11 12 13 13 14 14 14 14 13 14 15 15 15 15 14 13 13 13 12 11 11 11 11 11 11 13 16 20 21 22 23 23 23
14 12 12 10 6 6 6 4 1 4 6 6 6 6 6 8 9 8 8 8 7 7 7 7 6 5 5 5 6 6 7 8 9 9 10 9 9 8 7 7 6 6 6 6 7 8 9 10 10 10 12 12 13 13 13 14 14 15 15 15 14 13 13 13 14 14 14 13 12 12 11 10 9 9 10 10 11 14 17 20 21 22 22 21 21
11 10 10 10 8 5 4 4 2 1 3 6 9 8 7 8 8 7 9 10 9 9 10 10 10 11 11 11 10 11 10 9 9 10 10 10 9 9 8 8 8 8 8 8 9 9 10 11 11 12 14 14 15 15 15 14 14 15 15 15 15 14 13 12 13 13 12 12 11 11 11 10 10 10 10 11 13 16 18 20 21 21 20 20 20
10 9 8 7 6 5 5 5 4 4 3 4 8 10 10 10 9 8 9 10 9 10 11 12 12 12 13 13 13 13 13 12 12 12 12 12 12 11 11 11 11 11 10 10 10 10 11 12 13 15 15 16 17 17 16 16 16 16 16 16 15 14 13 12 12 11 11 10 11 11 11 11 11 11 12 13 15 18 19 20 19 19 19 20 21
13 12 11 10 9 8 8 8 8 8 9 9 9 9 11 13 13 12 13 13 13 13 14 15 16 16 16 15 15 15 15 16 16 16 15 15 15 14 13 13 13 13 12 12 13 13 14 15 15 16 16 16 16 16 15 15 16 16 17 17 16 15 13 11 10 9 9 10 10 11 12 12 13 13 15 16 17 18 18 18 18 18 20 22 24
14 14 15 14 13 13 12 11 10 10 11 11 11 10 10 12 13 13 14 13 13 14 15 16 18 20 20 19 19 19 19 18 18 18 17 16 16 15 15 15 15 15 15 15 16 16 16 16 16 15 14 14 13 14 15 15 16 16 17 17 17 16 14 10 8 8 9 10 11 12 12 14 14 15 15 16 16 17 18 18 19 21 23 24 25
16 17 17 18 17 17 17 17 15 14 13 13 14 13 13 13 15 15 15 15 14 15 16 16 18 21 22 21 20 20 19 18 17 17 16 16 16 16 16 16 16 16 16 16 16 16 16 16 15 15 15 15 15 15 17 18 17 17 16 16 16 16 15 11 8 8 9 9 10 11 12 13 14 15 15 16 17 19 20 21 22 23 24 25 26
19 19 20 20 21 21 20 20 20 19 17 16 16 16 16 16 16 16 18 19 18 18 18 18 19 20 22 21 21 21 20 19 18 17 17 17 17 17 17 17 17 17 17 16 15 16 16 16 16 17 17 18 18 19 20 21 20 17 16 15 15 15 13 10 9 9 10 10 11 11 12 14 15 16 18 19 20 22 22 23 23 24 25 26 27
21 22 22 22 22 23 23 23 22 21 20 20 19 19 19 18 16 16 18 20 21 21 21 20 20 20 22 23 23 23 23 22 21 21 20 19 19 18 18 18 18 18 17 16 16 17 18 18 19 20 21 21 22 23 23 23 21 18 16 15 14 14 13 11 11 11 11 11 11 12 14 15 16 17 18 20 21 21 22 22 23 24 24 25 26
23 23 23 23 24 24 25 25 24 22 21 21 20 21 22 20 18 16 16 17 19 21 21 21 21 20 21 23 24 25 25 24 23 22 22 21 21 20 20 20 19 19 18 18 19 19 20 21 23 23 23 24 24 23 23 22 19 17 16 15 14 14 13 13 13 12 12 12 12 12 14 15 15 16 17 18 19 19 20 21 21 22 24 25 26
25 24 24 25 25 26 26 26 26 24 22 21 21 21 22 22 21 18 17 16 17 17 18 19 19 19 20 22 23 23 23 22 22 21 21 21 21 21 21 22 21 21 21 21 22 22 23 24 24 24 23 22 21 20 19 18 16 16 15 14 13 14 14 14 13 13 12 12 12 12 13 14 15 15 16 17 17 18 18 20 21 22 22 23 23
27 27 27 27 27 27 27 27 27 26 24 23 23 22 22 23 22 21 20 20 19 17 17 17 17 17 18 19 20 20 20 20 20 20 20 21 21 21 22 22 22 22 22 23 23 24 24 24 23 21 20 20 19 19 18 16 15 15 15 14 13 13 13 14 13 13 13 12 12 13 14 14 14 15 15 16 16 17 18 19 20 20 20 21 21
30 30 30 30 30 30 30 31 30 28 26 25 24 24 24 24 23 22 22 23 23 22 20 19 18 17 17 17 18 19 19 20 21 21 21 21 21 22 22 23 23 23 23 24 24 24 23 22 20 19 19 19 20 19 18 16 15 14 14 14 14 14 14 14 14 13 12 12 13 13 13 13 13 14 14 15 16 16 17 17 18 18 19 20 21
29 30 30 31 31 32 32 33 33 32 30 28 25 24 23 22 22 22 22 22 24 24 24 23 22 20 19 18 18 19 20 21 21 22 23 23 23 24 25 25 25 25 25 25 25 24 22 21 20 20 20 21 21 20 17 16 16 15 15 15 15 16 15 13 13 12 12 12 11 11 11 12 12 13 14 14 15 15 16 16 17 18 18 19 20
29 30 30 31 31 31 32 33 33 33 33 31 28 24 21 20 19 19 20 20 21 23 25 25 24 22 21 20 19 20 21 22 23 24 24 25 26 26 27 28 29 28 27 27 27 25 24 23 23 22 22 22 22 19 17 16 16 16 15 15 16 15 13 11 11 12 11 10 9 10 10 11 12 12 13 13 14 15 15 16 17 17 17 18 19
Wind_Direction
197 197 197 197 195 191 193 194 193 197 195 195 209 205 185 188 193 189 187 186 190 192 192 197 205 215 235 255 260 265 248 200 214 208 210 268 327 320 286 256 257 244 184 182 183 193 206 216 222 228 233 239 247 252 254 255 254 252 251 253 253 249 248 251 245 239 238 235 238 242 244 245 248 253 258 255 249 247 249 250 251 247 243 245 248
195 198 199 198 197 194 195 196 197 201 199 197 209 210 193 194 199 193 191 196 196 198 203 203 216 252 289 299 294 291 268 210 195 196 222 316 350 343 316 257 219 203 200 190 185 194 210 225 234 238 240 244 251 259 263 264 262 259 255 255 257 256 253 251 245 241 239 233 234 240 245 249 251 250 247 244 241 240 244 248 251 248 240 242 250
198 199 200 199 198 198 197 197 199 203 203 203 211 214 203 201 203 196 196 202 198 198 205 203 217 252 280 295 296 288 263 228 204 205 263 344 353 348 330 307 235 202 210 209 204 214 240 257 259 252 246 245 253 261 268 275 274 268 264 260 261 258 248 242 238 236 239 236 233 239 247 252 253 248 241 239 239 242 246 246 248 248 244 247 254
204 201 200 199 199 201 200 199 202 206 207 208 212 215 210 206 205 199 198 203 201 200 201 201 210 240 260 268 267 249 245 237 218 219 308 356 354 355 337 339 38 126 165 177 198 282 348 360 355 351 18 51 34 334 334 337 317 296 285 276 272 264 250 239 233 233 241 237 230 233 240 245 251 250 242 237 238 243 248 246 243 244 244 246 247
211 205 202 201 201 202 202 203 207 210 211 213 216 216 212 210 207 201 200 202 203 202 199 201 208 228 239 237 234 223 220 226 222 225 327 360 358 4 343 19 74 86 100 115 74 22 28 22 3 347 348 15 63 50 55 61 52 28 348 324 303 281 264 250 235 229 236 236 232 229 223 228 240 240 232 232 236 241 247 246 242 240 239 240 244
217 211 206 204 204 204 205 207 211 214 216 217 219 217 213 213 207 199 199 202 205 203 198 203 211 225 233 228 228 230 222 221 217 233 284 308 306 273 272 121 107 96 91 101 77 355 346 340 346 343 342 334 188 159 67 63 56 42 14 4 8 347 284 255 238 224 225 229 234 234 226 220 224 219 212 222 231 238 243 240 237 236 233 232 236
218 214 209 207 207 207 208 209 212 216 217 218 221 220 217 213 205 197 196 200 203 201 198 203 213 219 222 214 205 304 242 226 217 225 251 258 247 241 245 192 136 117 117 84 309 295 309 333 345 353 5 13 175 189 210 324 319 320 326 342 18 32 28 340 245 226 221 222 227 231 232 229 228 226 220 218 216 219 228 227 227 225 219 220 218
217 214 210 210 210 211 213 212 214 216 216 218 218 214 209 204 198 192 190 199 204 202 202 207 215 217 209 192 165 138 236 247 236 213 206 221 231 230 228 151 29 354 328 323 321 318 344 356 8 21 34 37 35 218 250 268 288 298 306 321 20 38 43 48 46 266 225 229 231 231 235 245 253 243 220 208 205 206 212 208 213 213 208 214 214
218 217 214 213 214 216 217 216 217 217 215 213 207 205 205 198 191 190 192 206 206 203 207 211 214 213 202 185 181 196 217 236 236 208 196 203 214 214 196 14 354 351 342 339 356 30 18 22 42 54 63 71 75 81 86 107 212 257 133 147 121 74 62 62 56 49 53 53 243 240 254 274 282 280 242 218 205 192 193 180 188 202 197 206 218
218 219 219 218 219 220 221 221 223 220 214 211 205 212 216 204 196 201 206 215 211 205 206 209 208 203 196 191 195 209 221 229 224 209 203 193 188 201 181 31 20 15 12 33 67 66 48 49 64 70 75 77 78 79 80 82 87 96 106 116 130 135 128 93 55 36 50 61 65 66 42 19 11 9 341 266 204 168 163 155 158 167 166 173 198
217 218 221 222 222 222 222 223 219 211 214 216 212 217 214 202 208 215 217 221 214 205 203 203 203 198 194 199 205 219 235 234 219 210 208 176 156 168 134 86 69 55 52 75 85 81 70 63 67 72 73 72 72 73 74 76 79 86 93 95 103 117 126 121 94 72 89 78 73 74 63 50 52 55 46 25 48 113 146 154 153 145 140 134 124
216 217 220 222 222 220 214 210 207 211 227 229 228 227 205 197 218 224 222 221 212 205 204 203 203 199 197 207 218 233 253 247 225 213 208 162 140 135 117 99 93 87 89 95 95 90 78 63 59 60 59 62 65 65 68 72 75 80 85 86 86 86 85 89 92 96 101 102 103 98 85 78 81 90 87 67 66 83 115 145 150 141 132 124 117
216 217 220 223 220 209 202 211 218 228 237 234 231 229 206 197 207 206 208 213 207 206 207 205 206 205 204 215 228 238 252 246 224 213 194 167 140 120 109 100 101 103 107 109 105 100 87 69 59 49 47 52 52 53 58 65 70 73 75 77 76 74 73 76 82 87 89 92 98 99 97 100 107 112 113 110 109 115 128 137 141 141 134 125 122
212 214 218 220 213 199 204 219 227 231 234 233 234 229 211 201 200 197 200 206 204 205 211 211 212 212 211 218 228 235 243 240 220 211 191 171 152 128 118 111 109 108 109 111 109 108 101 87 69 49 44 46 42 40 41 51 64 69 69 67 67 68 69 70 72 75 77 79 81 84 88 90 96 104 107 117 133 152 163 155 146 143 136 131 129
182 187 194 200 204 207 213 221 228 230 231 233 233 217 200 194 200 204 206 208 205 204 211 218 220 217 213 213 221 227 236 242 218 207 194 174 164 146 137 128 120 116 113 111 106 103 99 91 82 65 56 57 53 44 37 44 53 61 67 64 62 65 65 67 69 68 70 70 68 70 74 78 81 82 83 90 108 135 153 159 161 157 146 138 133
124 134 118 68 29 237 225 225 227 230 234 236 227 201 190 192 207 213 213 213 212 209 213 221 224 221 213 211 219 223 230 237 214 204 198 181 175 165 154 150 143 134 125 119 113 108 101 94 92 89 77 69 65 52 45 52 53 53 60 63 67 69 64 63 65 68 71 69 65 66 69 74 75 75 74 74 79 99 127 147 167 174 166 149 134
83 101 114 76 29 10 284 248 240 240 244 244 230 196 189 214 219 211 216 219 218 217 216 218 222 222 215 213 219 222 226 226 206 203 201 189 185 180 171 171 169 161 155 149 138 125 116 110 107 107 98 79 60 43 38 54 64 62 61 63 65 64 61 62 65 68 71 70 67 67 72 75 74 73 73 73 72 72 78 93 141 175 182 172 149
58 348 330 257 343 15 3 304 261 253 254 252 233 193 190 227 220 207 219 225 223 221 219 220 224 224 217 212 217 222 224 213 201 203 206 201 198 196 189 186 185 188 187 177 164 152 140 132 125 118 111 88 42 7 8 33 62 71 71 72 73 70 63 62 65 69 72 72 69 67 69 72 72 71 69 69 69 70 74 77 85 116 166 184 175
205 223 230 231 225 24 360 318 306 252 237 241 225 194 196 221 207 204 221 229 223 221 222 226 231 229 223 218 221 225 220 207 200 204 209 208 209 211 207 201 197 198 196 185 179 176 174 181 206 308 350 359 327 312 320 342 9 37 57 65 75 82 80 73 73 74 75 77 74 71 69 68 70 71 67 64 62 66 75 82 86 90 111 150 174
187 194 194 191 185 167 264 281 315 320 226 217 199 190 199 204 197 207 226 226 218 218 223 230 235 232 227 223 226 227 217 208 205 204 206 206 207 211 214 214 211 207 202 197 194 195 205 246 299 314 325 330 327 315 308 312 319 327 334 339 12 55 79 87 90 86 81 83 82 81 76 68 62 62 64 63 58 60 68 75 83 88 97 115 137
171 178 174 163 155 150 167 215 256 210 156 165 162 167 181 191 198 211 221 216 211 215 221 227 234 233 225 222 229 230 218 210 211 209 207 204 201 201 207 214 219 220 218 216 222 236 257 275 284 295 314 322 325 324 318 317 317 314 312 303 302 316 325 342 40 56 62 68 73 82 83 74 60 48 49 56 55 57 59 59 68 77 84 97 107
146 147 145 142 135 135 146 161 164 138 132 141 140 144 161 178 194 201 201 200 204 212 219 225 231 232 225 222 228 232 224 217 217 215 212 213 209 206 208 211 217 223 225 228 233 238 250 263 267 273 286 295 299 300 299 304 307 308 312 310 300 297 303 313 321 320 313 314 328 323 182 147 115 61 31 34 40 41 43 43 36 35 45 58 65
130 130 132 133 133 138 143 148 151 146 151 164 154 151 163 171 185 191 187 188 199 212 220 225 228 230 227 223 224 229 226 222 221 217 215 217 215 214 218 215 216 222 228 235 241 241 244 253 261 268 269 266 273 282 284 284 284 289 299 304 300 294 296 312 322 318 311 307 304 295 281 273 265 260 274 308 336 340 329 319 310 316 329 334 335
131 130 128 127 126 127 130 136 143 148 157 168 167 169 177 179 187 192 192 193 202 214 222 227 229 230 230 227 224 225 226 225 224 220 220 221 219 222 229 224 220 228 239 248 252 250 247 249 253 259 263 269 276 282 285 280 272 275 284 289 292 293 295 301 307 308 307 306 304 301 300 295 289 290 292 296 299 296 293 296 303 314 319 320 322
135 134 134 133 128 125 129 134 136 139 148 156 160 169 181 190 194 195 197 201 207 214 221 226 228 228 230 230 228 227 227 227 226 224 224 224 225 233 240 235 230 237 248 255 256 254 252 252 254 256 259 266 273 275 279 278 270 266 269 274 284 291 295 296 296 295 294 293 291 290 293 293 292 295 301 304 300 290 293 302 309 312 308 310 316
146 145 143 139 134 133 134 133 132 135 143 153 164 175 182 191 196 193 188 191 201 207 211 214 218 221 225 230 232 230 228 229 230 231 227 223 227 238 246 242 240 245 250 252 252 251 252 254 260 262 264 270 273 272 275 276 269 262 262 264 271 281 287 288 288 286 285 282 281 280 280 280 281 284 295 307 306 297 303 313 316 312 303 305 313
153 151 148 143 138 138 137 136 135 133 140 156 173 183 190 190 182 172 164 163 175 186 192 199 207 214 220 224 228 227 226 229 231 228 223 222 228 238 246 247 248 250 251 254 256 255 254 256 259 261 266 274 276 274 275 276 269 263 263 267 271 274 276 277 279 281 278 274 277 280 277 272 270 270 277 287 288 284 287 296 303 304 300 302 310
161 159 157 151 145 142 139 141 141 136 140 159 180 189 191 178 158 149 146 145 152 165 177 191 201 209 212 213 216 219 221 225 225 219 218 225 234 242 250 256 257 255 255 258 261 259 257 259 260 260 266 271 272 272 273 273 269 264 263 267 272 274 271 268 269 274 271 267 273 279 275 266 262 261 257 259 265 266 263 264 271 284 289 291 298
168 166 164 160 156 153 150 151 152 151 156 165 174 179 174 162 150 144 141 141 146 155 164 177 191 203 210 213 218 224 227 229 230 223 222 234 244 249 255 260 263 263 262 261 262 259 257 259 261 264 268 270 269 269 269 268 269 269 269 270 273 274 271 265 264 266 265 266 273 276 271 262 258 256 253 253 258 260 258 257 259 266 270 273 278
173 169 168 168 166 164 163 162 160 158 159 159 162 164 162 159 150 144 146 148 150 157 163 168 182 200 212 219 224 228 230 234 240 242 240 243 249 253 255 257 259 262 260 255 254 254 254 256 258 261 265 267 268 268 268 272 277 279 279 278 274 271 268 265 263 263 264 267 271 270 265 260 257 253 250 250 253 257 260 258 258 262 265 265 268
178 176 174 173 173 171 169 167 165 162 157 153 153 153 155 158 150 144 149 147 146 154 158 161 173 192 208 216 220 224 228 233 236 238 236 233 235 236 233 231 229 225 224 227 235 244 249 250 248 252 260 267 274 278 281 286 289 289 286 280 276 272 270 269 267 267 269 271 271 269 266 262 257 251 249 249 249 251 257 259 258 261 262 262 265
175 183 180 176 174 172 170 169 168 167 164 160 155 149 150 151 144 147 151 144 143 148 149 150 153 161 172 180 188 194 197 199 195 189 188 186 188 191 188 187 189 189 195 203 215 235 249 253 255 261 270 275 278 280 283 286 287 286 283 280 279 278 276 275 276 277 278 279 279 277 274 269 262 254 253 255 252 249 252 255 256 257 259 261 263
111 144 162 166 168 168 169 170 168 166 165 165 164 162 164 162 156 158 158 154 160 167 165 161 154 154 158 159 162 168 169 170 167 165 168 170 172 178 180 181 181 175 177 192 215 238 248 254 259 263 266 267 270 273 276 280 281 282 281 282 282 282 283 285 286 286 287 288 289 288 283 278 271 262 256 257 257 253 250 251 252 255 259 261 262
84 91 101 112 131 145 152 157 159 162 162 162 164 166 167 170 172 177 180 184 197 198 194 189 176 169 171 171 175 178 173 170 168 162 162 161 166 177 182 191 209 226 242 251 253 255 255 256 260 263 267 269 272 274 275 276 277 278 278 279 280 280 283 288 291 294 297 298 299 297 292 286 279 271 262 256 255 256 253 251 251 254 257 259 262
76 78 83 85 93 109 125 134 138 146 155 155 152 151 152 155 162 180 198 213 227 223 215 212 205 197 191 184 182 182 180 179 177 174 172 169 173 187 198 212 227 237 244 248 248 249 252 257 263 269 275 279 280 282 282 281 281 280 278 276 276 277 279 282 286 291 298 303 305 303 296 288 280 274 266 255 250 254 258 255 253 253 256 259 264
59 55 60 65 67 74 86 109 124 137 151 154 157 167 168 162 161 170 176 179 202 212 206 204 208 207 201 193 187 186 185 184 183 184 185 184 189 196 202 210 214 216 219 224 229 239 255 272 284 290 292 292 293 293 293 295 295 293 290 285 279 276 276 278 280 283 288 297 303 304 299 290 282 276 271 262 253 253 257 257 255 257 259 261 265
54 50 47 46 47 55 53 34 230 202 186 177 194 212 212 200 187 179 173 170 179 197 196 189 187 186 188 196 204 204 195 188 186 187 187 190 195 200 205 209 211 215 222 231 246 266 280 288 293 294 292 292 294 295 296 298 299 299 300 298 292 282 276 275 276 278 282 287 294 299 302 297 287 281 279 276 268 259 256 255 255 256 258 261 267
53 55 53 54 61 66 55 34 304 210 210 216 217 215 215 216 213 209 210 209 206 215 223 224 226 235 246 248 246 239 220 200 192 191 193 198 204 207 212 216 222 233 244 256 269 278 283 286 288 288 288 290 294 298 298 297 298 299 300 301 300 295 286 280 278 279 282 285 288 294 301 305 305 301 293 281 267 257 252 251 253 256 261 267 276
37 39 43 46 48 45 31 18 26 174 227 237 238 234 225 220 222 225 227 225 224 233 239 239 244 248 247 245 243 240 233 224 220 220 221 223 226 230 235 242 249 257 263 269 277 282 284 288 290 293 297 299 302 305 307 305 305 305 304 304 304 302 299 292 287 285 286 288 291 295 300 305 308 307 295 276 262 255 253 254 257 263 270 279 287
360 358 1 11 11 360 343 334 328 320 311 285 262 254 247 242 240 235 234 238 244 246 237 230 236 245 245 243 244 243 241 242 245 246 244 244 247 250 254 260 265 270 274 275 279 283 286 290 294 297 300 302 304 307 310 312 312 311 310 311 311 309 306 299 293 290 290 292 296 299 300 299 297 295 287 275 265 260 259 260 264 271 280 287 291
333 329 325 322 315 311 312 311 308 301 297 296 290 278 265 257 251 245 243 249 256 257 248 241 244 249 250 251 253 254 253 251 253 255 254 255 258 259 261 267 271 274 279 283 284 285 287 290 293 295 296 297 299 303 306 310 312 312 311 312 315 318 315 303 294 291 291 292 294 295 295 292 288 284 279 273 267 264 264 267 273 281 286 289 289
311 310 310 305 299 295 293 291 293 292 290 291 293 287 272 262 258 255 252 252 252 253 253 252 249 247 246 249 254 256 257 255 254 257 258 259 261 263 265 270 273 277 285 292 291 289 288 290 292 293 293 292 293 297 304 309 311 310 308 310 314 319 320 310 294 285 285 288 289 290 289 288 285 282 279 277 275 275 276 279 283 286 288 288 288
305 304 302 300 297 293 288 286 286 284 285 288 290 288 281 272 268 267 264 260 256 252 250 251 249 244 243 246 249 251 254 256 256 258 261 263 264 267 269 272 274 279 287 292 292 290 289 290 290 290 290 290 290 294 300 306 307 304 302 304 311 318 320 314 295 275 272 276 279 279 280 282 284 284 283 282 284 285 286 287 287 288 290 292 293
306 305 303 301 299 295 291 288 285 283 281 280 281 284 284 281 277 273 267 264 263 260 255 251 248 244 244 245 247 249 252 255 256 258 261 264 265 266 267 269 273 279 285 289 290 290 290 290 288 285 283 283 286 288 293 298 300 297 293 296 306 314 315 308 291 275 268 268 271 273 277 280 282 282 282 284 287 288 289 289 290 291 293 294 295
305 303 302 301 298 297 295 291 289 287 283 278 275 275 276 277 278 277 271 265 262 260 258 255 251 249 248 248 247 248 250 252 254 256 259 261 262 263 265 269 273 277 280 284 285 284 284 283 282 279 277 277 279 282 286 291 292 290 287 288 298 307 304 289 278 274 272 274 277 279 280 281 281 280 281 283 284 285 286 288 291 292 293 294 295
304 302 301 299 296 295 294 291 290 289 286 281 276 271 269 269 270 270 266 261 257 254 253 252 248 247 249 250 248 247 247 247 248 250 252 253 256 261 265 269 272 273 275 277 277 277 277 277 277 277 277 276 276 278 281 283 282 282 282 283 290 297 292 276 268 269 273 279 284 286 286 284 282 282 283 283 285 287 289 291 293 295 297 299 301
301 301 300 298 296 294 292 290 289 287 286 283 278 273 270 267 265 262 258 255 252 247 244 244 243 243 245 245 245 244 244 244 245 247 249 252 254 258 261 263 264 266 268 271 272 273 274 275 276 276 274 274 273 274 275 276 276 276 276 277 283 288 282 270 266 270 274 279 284 287 288 287 286 288 289 290 291 293 294 297 299 301 304 306 307
297 297 295 294 292 291 289 289 287 287 286 282 279 276 274 271 267 261 257 255 253 249 245 244 244 245 244 242 242 243 245 246 248 250 252 254 255 255 256 256 258 261 264 267 269 270 271 272 272 272 270 268 268 269 271 273 275 275 271 270 275 278 274 269 269 272 277 281 284 285 286 288 290 292 293 294 296 298 301 304 306 307 309 311 313
294 293 291 290 288 287 286 285 284 283 283 281 278 276 274 274 273 268 262 258 256 253 252 251 250 251 252 250 248 249 251 253 255 256 258 260 261 261 261 263 264 266 268 269 268 268 269 268 267 266 264 262 265 270 274 274 272 268 264 265 268 267 263 264 268 274 278 281 283 286 288 291 293 294 296 298 301 304 306 308 310 312 315 318 319
295 293 291 289 287 286 284 282 281 280 278 275 275 275 275 275 276 275 271 265 258 255 254 255 255 257 258 256 255 255 256 258 260 262 264 264 265 266 267 269 270 270 270 271 270 269 268 265 262 260 259 260 264 269 270 266 262 257 257 262 263 258 256 261 269 275 278 279 282 286 288 291 293 296 299 303 305 308 311 314 317 321 324 325 325
295 293 292 291 289 288 285 284 283 281 278 273 268 268 272 275 274 273 273 268 261 255 252 251 255 258 258 258 260 261 261 262 264 264 265 265 266 267 269 270 271 269 269 269 269 269 266 263 261 259 257 259 264 263 255 248 247 249 252 255 252 248 253 265 272 273 274 276 280 285 287 291 295 299 303 308 312 316 321 324 327 330 332 332 331